Temperature
18 18 18 18 18 18 18 18 17 17 17 16 16 16 16 15 15 15 15 15 15 15 15 15 15 14 14 14 14 14 14 13 13 13 13 13 13 13
18 18 18 18 18 18 18 17 17 17 17 17 16 16 16 15 15 15 15 15 15 15 15 15 15 15 14 14 14 14 14 13 13 13 13 13 13 13
18 18 18 18 17 17 17 17 17 17 17 17 16 16 16 15 15 15 15 15 15 15 15 15 15 14 14 14 14 14 14 13 13 13 13 13 13 12
17 17 17 17 17 17 17 17 17 17 17 16 16 16 16 16 15 15 15 15 15 15 15 14 14 14 14 14 14 14 13 13 13 13 13 13 12 12
17 17 17 17 17 17 17 17 17 17 16 16 16 16 16 15 15 15 15 14 14 14 14 14 14 14 14 14 14 13 13 13 13 13 12 12 12 12
17 17 17 17 17 17 17 17 17 17 16 16 16 16 16 15 15 15 15 14 14 14 14 14 14 14 14 14 13 13 13 13 13 13 12 12 12 12
17 17 17 17 17 17 17 17 17 16 16 16 16 15 15 15 15 15 14 14 14 14 14 14 14 14 14 14 14 13 13 13 13 13 12 12 12 12
17 17 17 17 17 17 17 17 16 16 16 16 16 16 15 15 15 15 14 14 14 14 14 14 14 14 14 13 14 13 13 13 13 13 12 12 12 12
18 17 17 17 17 17 17 17 16 16 16 16 16 16 15 15 15 15 14 14 14 14 14 14 14 13 13 13 13 13 13 13 13 13 12 12 12 12
18 17 17 17 17 17 17 17 16 16 16 16 16 16 15 15 15 15 14 14 14 14 14 13 13 13 13 13 13 13 13 13 13 12 12 12 12 11
18 17 17 17 17 17 16 16 16 16 16 16 15 15 15 15 15 14 14 14 14 14 14 13 13 13 13 13 13 13 13 13 13 12 12 12 12 11
17 17 17 17 17 16 16 16 16 16 15 15 15 15 15 15 15 14 14 14 13 13 14 13 13 13 13 13 13 13 13 13 12 12 12 12 11 11
16 16 17 17 17 16 16 16 16 15 15 15 15 15 15 15 14 14 14 14 14 14 14 13 13 13 13 12 13 12 12 12 12 12 12 12 11 11
16 16 16 16 16 16 16 16 15 15 15 14 14 14 14 14 14 14 14 14 14 14 14 13 13 13 12 12 12 12 12 12 12 12 12 12 11 11
16 16 16 16 16 16 15 15 15 15 14 14 14 14 14 14 14 14 14 14 13 13 13 13 13 13 12 12 12 12 12 12 12 12 11 11 11 11
16 16 16 15 15 15 15 15 15 14 14 14 14 14 14 14 14 14 13 13 13 13 13 13 13 12 12 12 12 12 12 11 11 11 11 11 11 11
16 15 15 15 15 15 15 15 14 14 14 14 14 14 13 14 13 13 13 13 13 13 12 12 12 12 12 12 12 12 11 11 11 11 11 11 11 11
15 15 15 15 15 14 14 14 14 14 14 13 13 13 13 13 13 13 13 13 13 12 12 12 12 12 12 11 11 11 11 11 11 11 10 10 10 10
15 15 15 14 14 14 14 14 14 14 14 13 13 13 13 13 13 13 13 13 12 12 12 12 12 11 11 11 11 11 11 11 11 10 10 10 10 10
15 15 14 14 14 14 14 14 14 13 13 13 13 13 13 13 12 12 12 12 12 12 12 12 12 11 11 11 11 11 11 11 10 10 10 10 10 10
15 14 14 14 14 14 14 13 13 13 13 13 13 12 12 12 12 12 12 12 12 12 12 12 12 11 11 11 11 11 11 11 10 10 10 10 9 9
14 14 14 14 14 13 13 13 13 13 13 12 12 12 12 11 11 11 11 11 11 11 11 11 11 11 11 11 11 11 11 10 10 10 10 9 9 9
14 14 13 13 13 13 13 13 12 12 12 12 12 12 11 11 11 11 11 11 11 11 11 11 10 11 11 10 10 10 10 10 10 10 9 9 9 9
Wind_Speed
1 1 1 2 1 1 0 1 1 1 1 2 1 2 4 7 10 8 7 8 8 7 6 5 4 4 4 4 4 4 4 4 5 5 6 6 6 7
1 0 1 2 2 1 1 1 1 1 1 1 2 3 4 5 8 7 7 10 9 8 8 7 6 5 5 4 4 4 5 5 6 6 6 7 7 6
1 1 1 2 2 3 1 1 1 1 1 1 1 3 3 3 5 5 6 8 8 11 10 9 8 7 6 6 6 6 6 6 6 6 6 6 7 7
2 2 2 2 1 2 2 2 1 1 1 2 1 2 3 4 5 4 4 6 7 11 13 12 10 9 8 8 7 7 7 7 7 6 6 7 7 8
2 2 2 2 2 2 3 2 2 2 1 2 2 1 2 2 3 3 4 3 5 8 14 13 13 12 11 10 10 9 8 8 8 8 8 8 9 9
3 3 3 3 3 3 3 2 2 2 1 2 2 2 2 3 3 3 3 4 4 5 7 10 12 13 13 12 12 11 10 10 10 10 10 10 11 11
3 3 4 3 3 3 3 2 3 3 2 2 3 2 2 2 3 4 4 4 4 4 3 5 7 7 10 13 14 14 13 13 13 12 12 12 12 12
4 4 5 4 4 4 5 4 4 4 4 3 3 3 3 3 3 3 3 3 3 3 4 5 6 6 7 9 14 16 16 16 15 15 14 14 14 14
5 5 5 4 3 3 4 5 6 8 7 5 4 4 3 3 3 4 3 4 4 2 3 4 4 5 6 10 16 18 18 18 17 17 16 16 16 15
5 4 4 3 3 3 4 4 5 5 7 6 6 6 5 3 4 4 5 4 4 3 3 4 4 4 4 5 13 17 18 18 17 16 16 16 16 15
5 4 4 3 4 4 4 5 5 5 6 6 6 7 8 8 5 3 4 4 5 4 3 4 4 3 3 3 6 13 15 16 16 16 16 16 16 14
4 5 5 5 5 4 4 5 6 5 5 5 5 7 7 8 8 6 5 5 4 4 3 3 4 3 3 3 3 5 8 12 15 16 16 16 15 11
5 4 4 6 6 6 6 6 7 6 6 6 5 5 5 5 5 6 6 6 6 5 3 3 3 3 3 2 2 4 5 5 7 10 14 16 17 14
6 4 4 7 7 8 7 8 8 6 5 5 5 4 4 5 5 6 7 7 7 7 5 3 3 3 4 4 3 3 4 5 5 6 7 12 15 18
5 5 6 7 7 6 9 10 8 5 5 6 6 5 4 5 4 4 5 6 6 7 6 5 4 4 4 5 4 3 3 4 5 5 5 6 7 8
6 5 6 8 8 8 7 7 6 6 6 6 6 5 4 4 4 4 4 4 4 5 5 6 6 6 5 5 5 4 3 4 4 4 5 5 6 9
3 4 4 4 5 5 5 5 5 6 6 6 6 5 5 5 4 3 3 3 4 5 4 4 6 7 6 5 4 4 4 4 4 5 5 5 6 7
3 4 5 5 5 5 5 5 5 6 5 5 5 5 4 5 4 4 3 3 4 5 5 4 4 4 4 5 6 5 5 4 4 4 4 5 6 5
4 5 5 4 5 5 4 5 5 5 4 5 4 4 4 4 4 4 4 4 5 4 4 3 3 4 6 7 5 7 6 5 5 5 5 5 6 5
5 5 5 5 5 5 5 5 4 4 3 4 4 3 4 4 4 4 4 4 4 4 4 4 4 5 7 7 5 5 8 6 4 5 4 4 3 4
5 5 5 5 4 4 4 4 4 3 3 3 3 3 4 4 4 4 4 5 5 4 5 5 6 7 5 4 5 4 3 7 6 4 4 3 3 3
5 5 4 4 3 3 3 3 3 2 2 3 3 3 3 4 4 5 4 4 5 5 5 4 4 4 4 5 6 5 4 3 4 5 4 4 4 5
4 4 3 3 3 3 3 3 3 2 2 2 2 2 3 3 4 4 5 5 4 4 5 4 4 3 4 5 5 4 4 4 3 3 3 5 7 7
Wind_Direction
290 279 272 306 304 293 263 197 236 260 228 175 161 153 132 135 156 165 156 168 170 172 172 174 178 185 189 188 189 192 189 184 186 190 189 188 190 190
205 272 333 309 312 307 293 255 251 250 262 202 188 162 145 148 161 169 163 172 179 180 182 186 188 191 190 189 187 183 183 186 189 192 191 187 187 189
259 216 241 274 308 320 309 261 235 213 227 239 146 148 153 143 153 184 175 170 183 193 193 195 194 194 195 196 193 190 188 186 188 191 192 191 191 193
238 249 266 278 273 301 310 304 295 248 219 246 204 164 165 168 171 195 189 195 188 195 196 198 199 202 205 206 204 200 195 191 192 195 199 199 198 198
238 237 245 267 270 268 286 293 280 267 210 236 231 167 168 187 181 204 221 210 210 194 194 201 205 208 211 210 207 204 201 200 201 205 208 207 204 203
238 235 235 236 248 252 260 275 286 286 255 245 246 207 188 192 185 213 230 222 229 204 185 196 205 210 213 213 209 209 209 210 210 210 210 209 206 204
239 236 237 233 242 247 264 271 275 274 264 247 240 229 213 192 211 222 234 226 227 209 189 197 191 201 210 217 215 213 213 215 215 216 214 211 209 206
241 244 239 224 231 230 242 244 247 255 269 271 265 254 242 225 218 236 245 248 249 212 203 216 196 204 203 209 210 212 214 215 217 218 216 214 213 211
243 246 255 250 215 234 240 238 243 237 234 251 270 271 271 262 234 248 249 257 258 235 216 238 220 218 208 213 203 207 211 214 216 217 217 216 214 213
245 246 240 246 251 245 250 247 251 247 238 235 248 260 261 263 255 248 251 258 256 248 219 243 243 241 233 207 206 204 207 212 216 217 217 216 215 213
240 247 242 229 240 256 254 257 261 264 254 242 238 244 244 245 245 255 256 252 262 253 228 227 243 243 232 222 210 205 206 209 214 216 216 215 213 211
236 231 229 226 228 227 244 254 258 266 277 267 255 250 242 239 228 224 239 250 263 257 234 218 237 230 243 225 203 200 210 216 217 218 216 213 208 206
251 239 225 207 215 225 236 249 254 268 270 262 254 244 235 233 227 221 223 229 242 253 239 220 241 238 233 239 221 207 204 208 213 222 221 217 210 204
260 250 224 212 219 228 238 250 262 272 268 267 260 250 245 239 234 225 223 221 228 238 242 230 234 231 239 252 249 218 212 208 204 209 212 214 217 218
263 248 236 235 236 241 238 243 251 253 258 261 258 251 247 246 237 230 230 227 233 242 241 229 225 229 231 243 251 238 227 220 206 212 210 203 206 211
265 264 241 234 237 242 244 241 235 241 248 257 260 256 251 249 245 239 238 231 237 246 238 228 226 227 235 246 247 245 232 223 214 214 210 212 209 209
239 244 243 238 236 234 233 235 236 235 242 249 254 255 254 251 248 242 239 239 240 247 244 230 227 230 234 234 244 242 238 236 221 210 212 223 224 221
218 243 249 251 250 251 247 243 238 238 242 245 248 250 250 254 254 245 236 238 249 251 250 243 237 237 247 248 236 237 235 237 236 221 219 230 235 224
225 252 255 259 261 261 256 254 254 250 246 245 246 248 254 256 256 255 247 247 255 255 248 241 238 235 246 255 246 225 235 241 231 227 226 228 235 229
239 253 261 259 256 255 257 258 261 262 258 261 260 260 257 261 264 264 257 248 251 253 254 244 231 232 241 251 254 242 221 225 231 235 239 242 243 232
247 253 259 258 257 254 254 258 259 253 250 259 264 268 269 269 267 267 271 270 262 259 257 255 244 232 240 252 255 246 226 211 219 223 224 232 241 234
248 254 264 273 276 270 259 256 259 261 257 257 269 272 270 263 262 264 267 271 265 261 262 265 259 246 243 246 255 257 244 219 222 213 215 213 213 219
247 253 261 273 279 281 280 269 262 263 267 275 275 272 272 271 268 267 263 265 271 272 273 273 271 262 251 245 248 253 246 221 198 197 237 247 231 230
Height
1538 1539 1538 1539 1539 1539 1539 1539 1539 1538 1538 1537 1537 1536 1536 1534 1534 1532 1531 1531 1530 1530 1529 1529 1529 1528 1528 1528 1528 1528 1528 1528 1528 1529 1529 1530 1531 1532
1538 1537 1537 1537 1538 1538 1537 1537 1537 1536 1536 1535 1535 1534 1534 1533 1532 1531 1530 1529 1529 1529 1528 1528 1527 1527 1526 1526 1526 1526 1526 1526 1527 1527 1528 1529 1529 1530
1537 1537 1536 1536 1536 1536 1535 1535 1535 1534 1534 1534 1533 1533 1532 1531 1530 1529 1528 1528 1527 1527 1527 1526 1526 1525 1525 1524 1524 1524 1524 1524 1525 1525 1526 1526 1527 1528
1536 1536 1535 1535 1534 1534 1533 1533 1533 1533 1532 1531 1531 1531 1530 1529 1528 1528 1527 1526 1525 1525 1525 1524 1524 1523 1523 1522 1522 1522 1522 1522 1522 1523 1523 1524 1524 1525
1535 1534 1534 1533 1532 1532 1532 1531 1531 1531 1530 1530 1529 1529 1528 1527 1526 1526 1525 1524 1524 1523 1522 1522 1521 1521 1520 1520 1520 1520 1520 1519 1520 1520 1520 1521 1522 1522
1533 1532 1531 1531 1530 1530 1529 1529 1529 1528 1528 1527 1527 1526 1525 1525 1524 1523 1523 1522 1521 1520 1520 1519 1519 1518 1518 1518 1518 1517 1517 1517 1517 1517 1518 1518 1519 1519
1530 1529 1529 1528 1528 1528 1527 1527 1526 1526 1526 1525 1524 1524 1523 1522 1521 1521 1520 1519 1519 1518 1517 1516 1515 1515 1515 1514 1514 1514 1514 1514 1514 1514 1515 1515 1515 1516
1527 1526 1526 1526 1525 1525 1524 1524 1524 1523 1522 1522 1521 1520 1520 1519 1519 1518 1518 1517 1516 1515 1514 1513 1512 1511 1510 1510 1510 1510 1511 1511 1511 1511 1511 1511 1511 1512
1524 1523 1523 1523 1522 1521 1521 1521 1520 1520 1519 1519 1518 1517 1517 1516 1515 1515 1514 1513 1512 1512 1511 1510 1509 1507 1507 1506 1506 1507 1507 1507 1507 1507 1507 1507 1507 1508
1520 1520 1519 1519 1518 1518 1517 1516 1516 1515 1515 1515 1514 1514 1513 1513 1512 1511 1511 1509 1508 1508 1508 1506 1505 1504 1504 1503 1503 1503 1503 1503 1503 1502 1502 1502 1503 1503
1516 1515 1515 1515 1514 1514 1514 1512 1511 1511 1511 1510 1510 1509 1509 1508 1508 1507 1506 1505 1504 1503 1503 1502 1501 1500 1500 1499 1499 1499 1498 1498 1498 1498 1498 1498 1498 1499
1511 1510 1510 1510 1510 1509 1509 1508 1507 1506 1506 1505 1505 1504 1504 1503 1503 1502 1502 1501 1499 1498 1498 1498 1497 1497 1496 1495 1494 1494 1494 1494 1494 1493 1493 1494 1494 1494
1506 1506 1505 1505 1505 1505 1504 1503 1502 1502 1502 1501 1500 1499 1498 1498 1498 1497 1496 1496 1495 1494 1494 1494 1493 1493 1492 1490 1489 1489 1489 1489 1489 1488 1488 1489 1489 1489
1501 1501 1501 1501 1500 1500 1499 1499 1499 1498 1497 1496 1495 1494 1493 1493 1492 1492 1491 1491 1490 1490 1490 1490 1489 1488 1487 1486 1485 1484 1484 1484 1483 1483 1483 1483 1483 1484
1496 1495 1495 1495 1495 1494 1494 1494 1493 1493 1492 1491 1490 1489 1489 1488 1488 1487 1486 1486 1485 1484 1484 1484 1484 1483 1483 1482 1481 1480 1480 1479 1479 1478 1478 1477 1477 1477
1490 1490 1490 1489 1489 1488 1488 1488 1488 1487 1487 1486 1485 1485 1484 1484 1483 1482 1481 1480 1480 1479 1478 1478 1478 1478 1477 1476 1476 1475 1475 1474 1473 1473 1473 1473 1472 1472
1485 1484 1484 1484 1484 1483 1482 1483 1483 1482 1481 1481 1480 1480 1479 1478 1478 1477 1477 1475 1474 1473 1473 1473 1472 1472 1471 1471 1471 1470 1470 1469 1469 1469 1468 1467 1467 1467
1481 1479 1479 1479 1479 1479 1478 1478 1477 1477 1476 1475 1475 1475 1474 1473 1472 1472 1471 1471 1469 1468 1468 1467 1467 1466 1466 1465 1466 1465 1465 1465 1464 1464 1463 1463 1462 1462
1476 1475 1475 1474 1474 1474 1473 1473 1473 1472 1471 1471 1470 1469 1469 1468 1467 1467 1466 1465 1464 1463 1463 1463 1462 1462 1461 1459 1459 1460 1460 1459 1459 1459 1458 1457 1456 1456
1472 1471 1471 1471 1470 1470 1469 1468 1468 1467 1466 1465 1465 1464 1464 1463 1462 1461 1461 1460 1459 1458 1458 1458 1457 1456 1455 1455 1454 1454 1455 1454 1454 1453 1452 1452 1452 1452
1468 1467 1467 1466 1465 1464 1464 1464 1463 1462 1461 1460 1459 1459 1459 1458 1457 1456 1456 1455 1455 1454 1452 1452 1451 1452 1451 1451 1450 1449 1449 1449 1448 1448 1447 1447 1446 1446
1463 1462 1462 1462 1461 1460 1459 1458 1458 1457 1456 1455 1454 1453 1453 1453 1452 1451 1451 1450 1449 1449 1448 1447 1447 1446 1445 1444 1443 1443 1443 1443 1443 1443 1442 1442 1441 1440
1458 1458 1458 1457 1457 1456 1455 1454 1453 1452 1451 1450 1449 1448 1448 1447 1447 1446 1445 1445 1444 1444 1443 1442 1441 1441 1440 1440 1439 1438 1438 1437 1437 1437 1436 1437 1437 1437